Simultaneous Nadir Overpasses (SNOs) Predictions

Prediction of SNOs between GOES-17 and TERRA Satellite Orbit:

Table of predicted SNOs for the next 14.0 days since TLE Epoch: 6/25/2022
Index Date Time (GOES-17) GOES-17 Lat,Lon TERRA Lat,Lon Distance(km) Time Diff (sec)
1 06/25/2022 19:22:15 0.03,-137.20 -0.30,-135.65 176.15 80
2 06/26/2022 07:40:58 -0.03,-137.20 -0.81,-140.84 414.73 80
3 06/28/2022 07:28:43 -0.03,-137.19 -0.16,-137.89 78.74 80
4 06/30/2022 07:19:07 -0.03,-137.19 0.44,-134.93 256.65 80
5 06/30/2022 19:37:42 0.03,-137.19 0.62,-140.09 330.01 80
6 07/02/2022 19:28:06 0.02,-137.17 0.01,-137.13 4.79 80
7 07/04/2022 19:15:50 0.02,-137.15 -0.61,-134.17 339.20 80
8 07/05/2022 07:34:33 -0.02,-137.15 -0.50,-139.36 252.16 80
9 07/07/2022 07:24:57 -0.01,-137.12 0.13,-136.40 81.76 80
